[[{"header":{"parameterUnit":"m.s-1","parameterCategory":1,"la1":30.2991,"la2":30.254,"lo1":-89.0895,"lo2":-89.0444,"dy":0.0017,"dx":0.0017,"nx":28,"ny":28,"refTime":"2025-08-28T21:00:00:Z","depth":0,"parameterNumber":2,"parameterNumberName":"U-component_of_WINDS"},"data":[0,0,0,0,0,0,0,0,0,0,0,0,0,0,0,0,0,0,0,0,0,0,0,0,0,0,0,0,0,0,0,0,0,0,0,0,0,0,0,0,0,0,0,0,0,0,0,0,0,0,0,0,0,0,0,0,0,0,-1.8554,-1.8556,0,-1.8794,-1.8796,-1.8799,-1.8888,-1.8887,-1.8887,-1.8886,-1.9133,-1.914,-1.9147,0,0,0,0,0,0,0,0,0,0,0,0,0,-1.8174,-1.818,-1.8553,-1.8556,-1.8559,-1.8793,-1.8797,-1.88,-1.8888,-1.8887,-1.8886,-1.8885,-1.9131,-1.9139,-1.9148,0,0,0,0,0,0,0,0,0,0,0,0,0,-1.8369,-1.8183,-1.8553,-1.8632,-1.8641,-1.8793,-1.8797,-1.8801,-1.8888,-1.8887,-1.8886,-1.8885,-1.9128,-1.9138,-1.9149,-1.924,0,0,-1.9183,-1.9188,0,0,0,0,0,0,0,0,-1.8358,-1.8383,-1.8617,-1.8627,-1.8637,-1.881,-1.8754,-1.8948,-1.8889,-1.8795,-1.8886,-1.8884,-1.9027,-1.9046,-1.9093,-1.9252,-1.9263,-1.9184,-1.919,-1.9195,-1.9198,0,0,0,0,0,0,0,-1.8344,-1.8373,-1.8649,-1.862,-1.8633,-1.8656,-1.8682,-1.8791,-1.8914,-1.8803,-1.881,-1.8837,-1.9032,-1.9083,-1.91,-1.9266,-1.9183,-1.9193,-1.92,-1.9204,-1.9513,-1.9515,0,0,0,0,0,0,-1.8317,-1.8361,-1.8641,-1.8656,-1.8492,-1.8664,-1.8693,-1.8756,-1.8913,-1.8936,-1.8838,-1.884,-1.9064,-1.9087,-1.9109,-1.9227,-1.9195,-1.9205,-1.9212,-1.9511,-1.9513,-1.9515,0,0,0,0,0,0,-1.8309,-1.8341,-1.8631,-1.851,-1.8549,-1.8671,-1.8741,-1.8761,-1.8812,-1.894,-1.8962,-1.8867,-1.9064,-1.9093,-1.9207,-1.9236,-1.921,-1.922,-1.951,-1.9512,-1.9514,-1.9462,0,0,0,0,0,0,-1.8297,-1.8338,-1.8373,-1.8511,-1.8555,-1.8725,-1.8743,-1.8767,-1.883,-1.8836,-1.8973,-1.8994,-1.9066,-1.919,-1.9218,-1.9251,-1.9229,-1.9507,-1.9511,-1.9514,-1.9462,-1.9462,-1.9463,0,0,0,0,0,-1.8283,-1.8348,-1.8374,-1.8407,-1.8602,-1.8726,-1.8752,-1.8832,-1.8832,-1.8869,-1.8952,-1.899,-1.9229,-1.9201,-1.9233,-1.927,-1.9506,-1.951,-1.9513,-1.9461,-1.9462,-1.9463,0,0,0,0,0,0,-1.8211,-1.8368,-1.8398,-1.8509,-1.8604,-1.8741,-1.879,-1.883,-1.8927,-1.8928,-1.9024,-1.9054,-1.916,-1.9227,-1.9193,-1.9367,-1.937,-1.938,-1.932,-1.9321,-1.9322,-1.9304,-1.9238,0,0,0,0,0,-1.8208,-1.8295,-1.8428,-1.8514,-1.8559,-1.8666,-1.8723,-1.8777,-1.8879,-1.8919,-1.901,-1.9108,-1.9205,-1.9267,-1.9364,-1.9472,-1.9504,-1.9513,-1.9514,-1.9514,-1.9521,-1.9584,-1.959,-1.9527,-1.9527,-1.9527,0,0,-1.8203,-1.8299,-1.8348,-1.8501,-1.8581,-1.867,-1.8699,-1.8792,-1.8859,-1.8934,-1.9047,-1.9117,-1.9232,-1.9344,-1.9398,-1.9402,-1.9546,-1.9518,-1.9517,-1.9525,-1.9589,-1.9595,-1.96,-1.953,-1.9529,-1.9529,0,0,-1.8238,-1.832,-1.8401,-1.848,-1.86,-1.867,-1.869,-1.8821,-1.8871,-1.8986,-1.9044,-1.9126,-1.9291,-1.9371,-1.9433,-1.9501,-1.954,-1.953,-1.9533,-1.9593,-1.9598,-1.9603,-1.9628,-1.9635,-1.9537,-1.9537,-1.9537,0,-1.8217,-1.8353,-1.8437,-1.8527,-1.8593,-1.8665,-1.8748,-1.8821,-1.8966,-1.901,-1.9014,-1.9223,-1.9306,-1.9438,-1.9454,-1.9502,-1.9528,-1.9514,-1.9591,-1.9596,-1.9602,-1.9627,-1.9636,-1.9535,-1.9535,-1.9535,-1.9535,0,-1.832,-1.8414,-1.8465,-1.8603,-1.8675,-1.8761,-1.8859,-1.8922,-1.897,-1.904,-1.9157,-1.9259,-1.9378,-1.9414,-1.9461,-1.9553,-1.9552,-1.9572,-1.9577,-1.9605,-1.9629,-1.9639,-1.9532,-1.9533,-1.9533,-1.9534,0,0,-1.8316,-1.8501,-1.8518,-1.8582,-1.872,-1.8795,-1.8884,-1.9,-1.9053,-1.9151,-1.9229,-1.9368,-1.9388,-1.9458,-1.9516,-1.9569,-1.9617,-1.9583,-1.9587,-1.9586,-1.9724,-1.9708,-1.9717,-1.9644,-1.9646,-1.9648,-1.9715,0,-1.837,-1.8533,-1.8612,-1.8741,-1.8829,-1.8899,-1.8977,-1.9071,-1.914,-1.9225,-1.9302,-1.9398,-1.9417,-1.946,-1.9516,-1.9599,-1.9646,-1.9595,-1.9718,-1.9721,-1.9686,-1.973,-1.9714,-1.9772,-1.9725,-1.9726,-1.9728,0,-1.8455,-1.8552,-1.8689,-1.8818,-1.8858,-1.8927,-1.904,-1.9121,-1.9229,-1.9276,-1.9355,-1.9411,-1.9509,-1.9507,-1.9644,-1.9608,-1.9663,-1.9712,-1.9716,-1.973,-1.9726,-1.9746,-1.9792,-1.9801,-1.9744,-1.9742,-1.9741,0,-1.8438,-1.8604,-1.8708,-1.8761,-1.8913,-1.896,-1.9026,-1.9133,-1.9198,-1.9298,-1.9341,-1.945,-1.951,-1.9594,-1.9679,-1.9669,-1.9808,-1.9813,-1.985,-1.9847,-1.9875,-1.9872,-1.9931,-1.9911,-1.991,-1.991,-1.991,0,-1.849,-1.8571,-1.8703,-1.8766,-1.886,-1.8951,-1.9041,-1.9112,-1.9207,-1.9287,-1.9354,-1.9428,-1.9535,-1.9622,-1.9689,-1.9793,-1.9819,-1.986,-1.9877,-1.9854,-1.9849,-1.9891,-1.9889,-1.9913,-1.9912,-1.9912,-1.9911,0,-1.8487,-1.8578,-1.8696,-1.8831,-1.8867,-1.893,-1.9046,-1.9111,-1.9184,-1.9284,-1.9312,-1.9426,-1.9533,-1.9626,-1.9766,-1.9811,-1.9917,-1.9938,-1.988,-1.9889,-1.9921,-1.9917,-2.0009,-2.0026,-1.9993,-1.9994,-1.9994,0,-1.8514,-1.8578,-1.872,-1.8778,-1.8843,-1.8935,-1.9002,-1.9095,-1.9162,-1.929,-1.934,-1.9451,-1.9545,-1.9711,-1.9807,-1.9915,-1.9939,-1.9964,-1.9955,-1.9931,-1.9939,-1.9934,-1.9941,-1.9963,-1.9963,-1.9963,-1.9963,0,-1.8552,-1.8595,-1.8688,-1.8797,-1.8875,-1.8966,-1.9059,-1.9102,-1.9212,-1.9284,-1.9393,-1.9466,-1.961,-1.9719,-1.9838,-1.9907,-1.9954,-1.9965,-1.9979,-1.9956,-1.992,-1.994,-1.988,-1.9962,-1.9962,-1.9962,-1.9962,-1.9962,-1.8566,-1.8626,-1.8736,-1.8838,-1.8917,-1.9003,-1.9071,-1.9152,-1.9244,-1.9368,-1.9417,-1.9529,-1.9637,-1.9801,-1.987,-1.9959,-1.9967,-1.9987,-1.9993,-1.9996,-1.9992,-1.9906,-1.9981,-1.9981,-1.9982,-1.9982,-1.9982,0,-1.8608,-1.8682,-1.8775,-1.8902,-1.8983,-1.902,-1.9124,-1.9189,-1.9286,-1.9383,-1.9474,-1.96,-1.9707,-1.9811,-1.9924,-1.9975,-1.9999,-2.0002,-1.9999,-2.0014,-1.9979,-1.9955,-1.998,-1.998,-1.998,-1.998,-1.998,-1.998,-1.8639,-1.8743,-1.8799,-1.8944,-1.9018,-1.9127,-1.9184,-1.9263,-1.9341,-1.9478,-1.9567,-1.9635,-1.9735,-1.9856,-1.9956,-1.9984,-2.0022,-2.0019,-2.0052,-2.0017,-2.0016,-2.0015,-1.9994,-2.0026,-2.0026,-2.008,-2.0081,-2.0081]},{"header":{"parameterUnit":"m.s-1","parameterCategory":1,"la1":30.2991,"la2":30.254,"lo1":-89.0895,"lo2":-89.0444,"dy":0.0017,"dx":0.0017,"nx":28,"ny":28,"refTime":"2025-08-28T21:00:00:Z","depth":0,"parameterNumber":3,"parameterNumberName":"V-component_of_WINDS"},"data":[0,0,0,0,0,0,0,0,0,0,0,0,0,0,0,0,0,0,0,0,0,0,0,0,0,0,0,0,0,0,0,0,0,0,0,0,0,0,0,0,0,0,0,0,0,0,0,0,0,0,0,0,0,0,0,0,0,0,5.0509,5.0509,0,5.043,5.0429,5.0428,5.0283,5.028,5.0278,5.0275,5.0195,5.0195,5.0196,0,0,0,0,0,0,0,0,0,0,0,0,0,5.0538,5.0538,5.051,5.0508,5.0508,5.043,5.0429,5.0428,5.0284,5.028,5.0277,5.0274,5.0195,5.0195,5.0196,0,0,0,0,0,0,0,0,0,0,0,0,0,5.0499,5.0538,5.051,5.0426,5.0418,5.043,5.0429,5.0427,5.0284,5.028,5.0276,5.0272,5.0194,5.0195,5.0196,5.0283,0,0,5.0198,5.0198,0,0,0,0,0,0,0,0,5.0501,5.0498,5.0439,5.0432,5.0423,5.0362,5.0409,5.0379,5.0285,5.0335,5.0275,5.027,5.0254,5.0249,5.0244,5.0279,5.0276,5.0198,5.0198,5.0198,5.0199,0,0,0,0,0,0,0,5.0504,5.05,5.0478,5.0439,5.0429,5.0393,5.0383,5.0403,5.0319,5.033,5.032,5.0312,5.0248,5.0243,5.0241,5.0275,5.0198,5.0198,5.0199,5.0199,5.0374,5.0378,0,0,0,0,0,0,5.0519,5.0503,5.048,5.0475,5.0452,5.0396,5.0384,5.0386,5.0318,5.0304,5.0316,5.0306,5.0244,5.024,5.0237,5.0331,5.0198,5.0199,5.0199,5.037,5.0375,5.038,0,0,0,0,0,0,5.052,5.0518,5.0484,5.0487,5.0479,5.04,5.0402,5.0386,5.0381,5.0307,5.0292,5.0326,5.0241,5.0236,5.0272,5.0326,5.0199,5.02,5.0365,5.0372,5.0378,5.0523,0,0,0,0,0,0,5.0521,5.0519,5.0551,5.0488,5.048,5.052,5.0406,5.0388,5.0382,5.0368,5.0312,5.0299,5.0237,5.0272,5.0273,5.0325,5.0201,5.036,5.0368,5.0376,5.0513,5.0533,5.0551,0,0,0,0,0,5.0523,5.0596,5.0554,5.0552,5.0518,5.0523,5.0518,5.0445,5.0388,5.0419,5.0371,5.0301,5.0322,5.0276,5.0276,5.033,5.0356,5.0366,5.0375,5.0504,5.0529,5.055,0,0,0,0,0,0,5.0669,5.0587,5.0538,5.0594,5.0567,5.0499,5.0536,5.0475,5.0463,5.0451,5.0361,5.035,5.0396,5.0367,5.0319,5.0409,5.0327,5.0338,5.0426,5.0449,5.0468,5.0472,5.0201,0,0,0,0,0,5.0707,5.0718,5.0646,5.0702,5.0691,5.0617,5.0616,5.0562,5.053,5.0518,5.0473,5.0445,5.0444,5.0446,5.0442,5.0509,5.0493,5.0546,5.0565,5.0582,5.059,5.0619,5.0641,5.0411,5.0411,5.0411,0,0,5.0787,5.0744,5.0756,5.073,5.0702,5.0714,5.0607,5.0626,5.0633,5.052,5.0549,5.0517,5.0479,5.053,5.055,5.0507,5.065,5.0594,5.0607,5.0606,5.0631,5.0653,5.0673,5.0418,5.0417,5.0416,0,0,5.0937,5.0907,5.0948,5.0923,5.0882,5.0832,5.0843,5.0784,5.0757,5.0786,5.07,5.0709,5.0711,5.0687,5.0675,5.0817,5.075,5.0819,5.0917,5.0947,5.0965,5.098,5.1026,5.1045,5.0828,5.0828,5.0829,0,5.1041,5.1055,5.0978,5.1,5.099,5.0889,5.0929,5.0909,5.087,5.0865,5.0818,5.0817,5.0785,5.0827,5.0861,5.0857,5.0864,5.0822,5.0969,5.0983,5.0997,5.104,5.1058,5.0836,5.0835,5.0835,5.0834,0,5.1183,5.1195,5.1234,5.1196,5.1192,5.1224,5.115,5.1155,5.1102,5.1057,5.1086,5.1045,5.1029,5.1036,5.0986,5.107,5.1044,5.0985,5.09,5.1028,5.1066,5.1083,5.0848,5.0845,5.0843,5.0841,0,0,5.1419,5.1339,5.1354,5.1335,5.1283,5.129,5.1318,5.1302,5.1306,5.1284,5.1302,5.1306,5.125,5.1237,5.1183,5.121,5.1319,5.1146,5.1144,5.1176,5.1406,5.1447,5.1468,5.1277,5.128,5.1283,5.1407,0,5.1555,5.1595,5.1526,5.1582,5.159,5.1495,5.1518,5.1489,5.1448,5.1449,5.1405,5.1407,5.1335,5.1326,5.1349,5.1301,5.1364,5.1292,5.1291,5.1291,5.1298,5.1489,5.1533,5.1653,5.1422,5.1425,5.1427,0,5.1717,5.17,5.1757,5.17,5.1701,5.1723,5.1701,5.1705,5.1669,5.1637,5.1623,5.1559,5.158,5.1502,5.1529,5.1482,5.1478,5.1455,5.1457,5.1451,5.1364,5.1483,5.169,5.1706,5.1451,5.1449,5.1447,0,5.1877,5.187,5.1902,5.189,5.1825,5.1842,5.1816,5.1777,5.1771,5.1753,5.1748,5.1734,5.1725,5.1715,5.1648,5.1598,5.1682,5.1599,5.1653,5.1655,5.1671,5.1671,5.1876,5.1678,5.1678,5.1677,5.1677,0,5.2032,5.207,5.1973,5.1992,5.2031,5.1952,5.1993,5.1957,5.1923,5.1933,5.1852,5.1863,5.1777,5.1778,5.1727,5.1755,5.1753,5.1726,5.1711,5.173,5.1733,5.1723,5.1711,5.1682,5.1681,5.168,5.1679,0,5.2216,5.2154,5.2181,5.2118,5.2103,5.2134,5.208,5.2094,5.205,5.2063,5.2062,5.1991,5.1988,5.1922,5.1906,5.1871,5.1918,5.1891,5.193,5.1919,5.1975,5.1969,5.2178,5.2199,5.1992,5.1995,5.1996,0,5.2317,5.2343,5.2283,5.2283,5.2261,5.2264,5.2257,5.2182,5.2178,5.2139,5.2158,5.2149,5.2137,5.2137,5.2084,5.207,5.2038,5.2113,5.2036,5.2053,5.2034,5.2031,5.2032,5.2127,5.213,5.2132,5.2134,0,5.25,5.2468,5.2461,5.2444,5.2438,5.2421,5.2399,5.2404,5.2321,5.2321,5.2317,5.2308,5.2291,5.2282,5.2259,5.2231,5.2168,5.2159,5.217,5.2188,5.2208,5.2193,5.1969,5.2154,5.2152,5.215,5.2149,5.2148,5.2642,5.266,5.262,5.2615,5.259,5.2571,5.2581,5.2537,5.2532,5.2512,5.2468,5.2471,5.2433,5.2395,5.2374,5.2373,5.2335,5.2353,5.2356,5.236,5.2369,5.2212,5.237,5.2369,5.2368,5.2368,5.2367,0,5.2817,5.2787,5.2784,5.2754,5.275,5.2693,5.2665,5.2665,5.2668,5.2639,5.2629,5.2623,5.2614,5.2561,5.2545,5.2555,5.2525,5.2553,5.2549,5.2543,5.2407,5.2396,5.2577,5.2577,5.2577,5.2577,5.2577,5.2576,5.2908,5.2933,5.2897,5.2909,5.2878,5.288,5.2868,5.285,5.2825,5.2823,5.2815,5.278,5.274,5.2721,5.2709,5.2693,5.2689,5.2726,5.27,5.2573,5.2553,5.2533,5.2523,5.2727,5.2727,5.2835,5.2836,5.2837]}]]